Theta_e
311 311 311 310 310 310 310 311 312 311 311 311 311 312 311 312 312 312 313 313 313 312 312 312 313 313 313 314 313 312 312 306 305 305 306 311 315 317 316 316 316 315 316 309 308 306 304 305 304 309 312 312 312 310 314 313 314 311 302 300 296 298 298 303 301 302 306 302 308 311 312 310 307 312 313 315 313 312 313 312 316 317 315 316 316 319 327 333
310 311 311 310 310 310 310 311 311 310 311 311 311 311 311 311 312 312 312 313 313 312 312 313 312 313 313 313 313 312 309 306 304 306 310 316 316 316 316 316 315 314 313 307 306 305 303 302 304 306 310 307 318 308 313 309 314 305 302 300 296 300 302 307 304 303 304 301 304 307 313 311 310 313 315 308 308 309 308 310 312 314 316 315 316 317 327 329
311 310 310 310 309 309 310 310 310 310 310 310 310 311 310 311 311 311 311 312 313 312 312 312 313 313 313 312 312 312 307 306 305 304 311 317 317 316 315 315 315 315 310 304 305 306 305 304 305 303 307 304 308 306 309 308 310 308 303 297 298 303 303 304 302 301 301 302 302 304 307 310 312 311 315 308 309 309 307 308 311 311 312 315 315 316 324 328
310 310 309 309 309 309 310 310 310 310 310 310 310 310 310 310 310 311 311 312 312 313 312 312 313 313 311 311 311 310 306 303 300 307 312 316 316 315 315 314 314 313 309 307 308 305 307 306 308 303 305 301 303 308 303 308 304 307 303 298 300 304 302 301 302 301 301 303 301 302 305 305 305 307 310 309 306 306 306 310 312 312 314 315 316 316 317 319
310 309 309 308 308 309 309 310 309 309 309 310 309 309 310 310 310 310 311 311 312 312 312 313 313 312 310 309 309 309 303 296 300 308 311 315 315 314 314 312 312 309 308 306 305 304 305 303 305 305 302 296 301 303 303 307 307 305 302 305 304 304 302 302 302 302 301 303 302 302 301 303 304 305 306 307 304 303 306 308 313 315 315 315 315 315 316 317
309 308 308 308 308 309 309 308 308 309 309 309 310 309 309 310 310 309 310 311 312 312 312 313 312 311 310 309 306 306 301 284 305 306 311 312 312 312 312 312 312 309 307 304 303 305 306 305 302 298 297 295 297 297 300 304 308 296 302 303 304 303 301 302 301 302 303 302 302 301 302 302 303 302 306 307 306 310 310 313 311 314 316 316 317 316 314 314
308 308 307 307 308 308 308 308 308 308 309 309 309 309 309 310 309 309 309 310 311 311 312 311 310 309 308 308 308 305 299 300 306 308 308 309 309 310 309 309 311 306 304 302 302 301 302 302 300 297 296 296 296 297 298 303 306 301 297 299 301 302 301 303 301 300 299 300 300 304 300 299 300 296 304 302 306 309 312 314 314 314 315 315 314 315 315 314
308 308 308 307 307 307 307 307 307 308 308 309 309 309 309 309 309 308 309 310 310 311 311 310 309 309 307 303 303 299 296 299 302 307 307 308 307 305 307 306 305 304 302 301 302 299 304 299 296 302 295 292 298 297 301 301 301 297 296 298 299 297 299 300 297 297 298 298 300 301 298 297 299 299 302 300 304 307 309 312 314 315 313 313 312 313 315 315
308 307 307 307 307 307 307 307 307 307 308 308 309 309 310 309 308 308 309 310 310 311 309 309 308 308 307 303 298 294 293 300 303 304 305 307 305 305 308 303 305 302 301 300 301 302 302 299 299 303 293 294 299 298 297 296 292 298 297 298 297 297 297 295 297 295 294 295 296 294 293 297 298 302 297 299 301 305 307 308 309 310 312 312 312 312 312 313
308 308 307 306 306 306 307 307 307 307 308 308 309 309 309 308 307 307 309 309 310 309 308 308 308 308 305 302 301 289 299 303 304 304 303 307 304 304 303 302 302 303 300 299 299 300 300 300 298 303 303 298 300 295 297 295 291 295 296 295 293 294 296 297 293 294 297 295 294 291 291 292 297 297 289 300 300 302 303 304 306 306 306 307 312 312 312 312
307 307 306 306 306 306 306 307 307 307 307 308 309 309 308 307 306 308 308 309 309 307 305 308 307 307 301 302 295 290 300 302 304 303 304 306 303 302 301 302 302 301 301 300 300 301 302 304 304 305 297 295 297 296 296 295 297 297 294 292 292 293 294 294 294 294 294 293 293 292 291 294 294 294 290 295 305 306 303 305 306 305 305 306 309 312 313 313
306 306 306 306 306 306 307 307 307 307 308 308 308 307 307 306 306 308 308 308 308 306 306 306 308 304 302 299 294 295 302 302 304 304 305 305 303 301 305 303 303 303 303 300 301 304 304 304 304 302 293 301 290 297 294 300 298 295 294 288 290 291 290 292 291 294 294 293 295 296 292 289 291 289 293 295 299 300 299 299 303 304 305 304 303 305 311 312
306 306 305 305 305 305 306 307 307 307 307 307 307 307 306 306 307 308 308 308 308 306 306 305 304 305 300 294 297 301 304 303 304 304 303 304 303 303 303 306 305 305 305 303 302 306 306 304 305 300 302 300 298 289 298 299 298 297 295 289 287 287 286 291 295 295 293 295 296 296 280 285 289 292 295 299 299 298 297 296 296 298 298 298 299 300 304 307
306 305 305 305 305 305 305 306 307 307 307 306 306 306 305 306 308 308 307 307 307 306 306 306 305 303 299 296 298 306 306 303 302 301 301 302 302 303 303 308 308 307 308 304 304 304 306 303 304 303 303 299 295 300 297 295 296 286 290 290 283 282 280 291 292 293 290 296 296 297 280 282 290 293 297 300 301 299 295 295 296 297 299 298 299 300 302 305
305 305 305 305 304 304 305 306 306 306 306 305 305 304 306 306 307 306 307 306 307 306 305 305 305 301 296 295 305 307 309 303 300 299 303 301 301 300 299 304 303 304 304 305 305 306 306 305 302 296 292 301 299 293 288 289 290 288 283 281 285 282 285 289 293 292 290 293 297 293 283 283 288 292 297 298 298 298 294 293 294 295 297 299 300 300 300 303
305 306 305 304 304 304 304 305 305 305 304 304 304 305 306 307 306 305 306 306 306 304 304 302 303 300 295 294 299 307 303 299 296 301 303 302 301 300 300 302 304 304 305 304 306 306 303 303 297 297 296 293 291 287 284 286 285 287 283 281 282 283 283 286 289 292 295 293 294 291 281 287 287 292 296 298 298 298 294 292 293 296 296 295 296 298 299 301
305 304 304 304 304 304 304 304 304 304 303 303 304 305 307 307 306 304 305 306 305 306 302 302 304 302 291 298 304 297 297 298 306 301 302 302 302 302 302 301 298 298 302 303 303 302 300 298 297 294 295 289 287 288 282 279 278 282 285 280 284 281 282 280 287 290 293 292 287 290 285 284 286 292 294 297 298 297 292 291 292 293 292 293 294 296 297 299
304 304 304 303 303 303 304 304 304 303 303 303 304 305 303 305 300 304 306 304 306 306 306 307 302 297 289 296 292 294 298 298 299 299 301 302 304 304 302 298 299 299 299 295 298 296 296 291 292 285 287 287 288 285 280 275 279 280 280 279 280 281 283 282 281 287 290 288 285 285 285 286 287 289 290 296 297 295 292 292 292 292 291 291 293 294 295 297
303 303 303 303 303 303 303 303 303 303 303 303 304 305 304 301 304 305 300 301 299 297 292 292 291 284 284 291 296 299 297 295 300 300 299 301 306 305 303 303 300 295 292 291 291 294 292 290 291 283 281 283 283 286 283 284 284 283 282 281 280 277 278 279 286 289 288 283 282 280 279 281 284 285 287 289 293 292 291 290 292 292 292 291 292 293 293 295
303 302 302 302 302 302 302 302 302 302 302 299 297 301 301 292 294 293 295 294 291 290 290 292 293 292 292 292 292 295 299 301 295 300 301 304 302 300 300 300 297 295 292 286 289 291 295 283 280 280 284 287 288 288 288 287 286 284 283 281 279 279 280 284 286 289 288 284 280 281 281 281 282 283 285 287 288 288 287 287 288 291 292 292 291 292 293 294
302 302 301 302 302 302 302 302 302 302 301 297 296 293 285 286 283 283 285 288 293 295 292 291 292 289 289 292 294 294 290 294 297 298 299 305 300 298 293 295 291 285 286 291 289 294 291 282 283 287 287 286 285 286 286 286 285 282 280 279 276 281 274 284 284 287 288 282 279 282 281 281 283 284 285 286 286 286 287 287 287 288 290 291 291 291 292 294
302 301 301 302 302 302 302 302 302 302 301 296 293 288 288 289 292 294 289 282 291 294 294 292 292 291 295 295 296 295 292 290 291 296 301 302 298 292 292 290 288 285 289 288 288 282 281 280 285 288 287 286 286 285 286 285 284 283 278 277 276 275 280 284 285 287 288 284 279 282 279 280 281 283 285 285 287 287 288 288 288 288 288 289 291 291 292 292
301 301 301 301 301 301 301 301 302 301 296 293 289 289 287 292 295 296 292 286 284 293 292 292 291 292 291 294 294 295 288 287 286 293 295 299 295 293 292 286 287 288 287 288 281 280 277 284 286 287 286 284 284 285 285 284 283 279 278 277 275 279 278 272 280 284 286 283 278 279 277 279 282 283 284 285 286 287 289 289 289 289 288 288 289 289 291 291
301 301 301 301 301 300 301 301 302 295 293 293 290 289 293 295 294 294 289 282 284 290 290 293 293 291 289 290 294 291 289 291 291 289 300 297 291 294 291 289 286 286 283 286 285 281 281 286 288 287 286 285 284 284 284 280 277 281 280 278 277 277 276 277 277 282 283 284 280 280 277 278 280 280 281 285 287 287 288 289 289 290 291 291 292 291 292 291
300 301 300 300 301 300 300 302 294 291 294 295 291 294 294 295 296 294 287 284 285 285 293 293 294 294 290 297 296 290 293 291 290 295 297 296 294 289 287 293 288 282 285 288 287 284 284 289 288 287 284 284 283 280 282 282 276 277 281 282 281 281 276 279 279 278 274 273 280 279 271 272 276 277 280 283 285 285 287 287 287 288 289 290 289 290 292 293
301 300 300 300 300 300 300 294 290 292 293 289 291 294 295 295 296 295 287 279 277 283 290 285 297 288 299 291 293 292 292 286 292 294 297 298 298 293 292 285 288 280 286 286 283 282 283 289 288 285 284 283 282 280 282 283 278 276 275 283 285 282 277 278 278 276 270 269 278 282 270 269 275 276 279 279 280 283 285 285 286 288 289 289 290 291 291 292
300 299 300 300 299 299 291 286 293 294 290 290 294 295 295 295 297 292 283 279 274 283 285 290 286 289 295 293 293 293 278 281 294 294 294 298 292 299 285 285 287 288 288 284 277 275 284 286 283 283 282 280 279 277 282 282 277 273 282 283 283 281 278 277 279 277 274 278 279 280 276 269 271 275 277 278 279 280 281 283 284 287 288 288 289 290 291 292
299 299 300 299 299 298 290 292 291 290 288 291 296 295 295 294 295 291 281 268 267 286 283 285 290 297 294 294 294 288 286 290 286 290 293 295 295 292 286 283 284 285 286 282 271 281 284 281 282 281 280 278 277 280 282 284 279 278 282 284 282 281 280 277 276 275 274 273 269 274 276 270 270 274 276 278 275 275 277 281 283 285 286 287 288 289 289 291
299 299 299 299 298 297 295 291 290 289 293 295 295 295 295 295 290 282 276 267 279 280 296 285 297 293 292 293 289 290 289 291 283 289 292 294 295 292 284 288 287 285 286 283 276 278 283 284 285 285 282 277 282 280 282 284 278 284 284 284 284 281 280 278 273 273 273 270 267 272 275 269 270 275 274 276 274 274 278 282 284 286 286 286 287 287 288 289
299 299 299 299 296 293 291 293 292 294 296 296 296 295 295 291 286 277 270 263 279 275 288 289 286 282 287 283 285 287 285 286 285 290 291 290 291 293 289 291 285 280 279 284 281 281 280 289 289 284 281 283 281 282 285 285 285 285 284 278 277 276 275 274 274 273 271 266 268 273 274 271 266 272 272 274 276 280 281 281 284 286 286 287 287 287 289 289
299 299 298 298 290 290 291 289 292 296 296 296 295 294 290 286 276 272 264 272 278 279 285 284 280 287 280 277 277 283 280 282 281 285 283 288 286 289 288 283 284 277 277 278 279 281 281 283 280 283 287 285 284 281 285 285 285 283 276 273 272 272 274 272 271 272 266 265 271 273 271 273 266 270 274 280 282 282 282 281 282 283 283 286 287 288 289 290
298 298 298 294 293 295 289 287 292 296 296 296 294 289 284 275 279 269 269 285 271 277 276 275 280 278 277 279 274 276 275 278 280 280 278 279 277 279 280 273 276 271 271 272 273 278 276 279 282 284 288 284 281 278 279 280 281 279 275 273 267 264 267 262 268 264 266 265 269 270 271 268 270 274 278 280 281 281 282 282 282 282 283 285 285 287 289 290
298 298 298 294 294 293 292 294 295 295 295 295 291 287 278 272 263 274 273 275 270 276 275 281 275 275 276 273 274 276 276 273 280 278 279 279 275 275 281 279 279 275 268 272 272 272 273 279 280 280 283 284 283 275 273 272 277 276 274 272 267 262 261 259 264 265 267 270 274 273 274 269 272 277 281 280 282 284 284 285 285 284 284 285 285 285 286 289
297 297 293 294 294 295 294 295 295 295 293 293 288 280 276 267 267 281 272 275 272 280 280 277 275 275 273 273 273 275 274 276 275 277 279 275 276 273 276 280 280 276 274 274 269 270 266 268 274 278 274 284 282 280 278 275 276 277 277 275 271 268 261 259 263 260 263 266 271 276 269 264 270 271 281 282 284 285 286 286 286 286 285 285 285 286 286 288
297 295 294 294 295 295 293 294 294 294 293 289 282 277 268 268 272 271 272 272 277 281 277 278 275 274 272 272 274 273 275 271 275 274 274 274 272 273 273 275 279 279 276 270 272 270 269 270 274 280 280 282 281 284 285 279 276 277 276 278 274 271 274 266 267 265 265 265 265 268 269 272 272 281 281 282 282 283 284 284 285 284 285 285 285 286 287 287
294 292 293 292 292 292 293 294 292 292 290 285 277 273 271 272 270 274 274 279 280 275 274 277 274 272 273 274 273 270 276 272 273 273 272 273 275 273 275 274 274 277 273 270 272 264 270 266 273 278 279 275 278 280 280 282 268 275 276 271 275 279 276 271 271 271 270 268 264 270 272 275 277 280 281 281 281 281 281 281 282 282 283 283 284 285 286 287
288 291 288 290 291 292 293 293 292 289 288 282 276 271 273 272 276 278 280 277 277 277 275 268 271 271 269 269 270 271 272 275 272 271 269 274 271 274 272 274 278 275 275 273 271 274 268 270 272 274 273 278 280 279 279 279 278 273 266 272 277 279 276 274 266 270 268 265 266 272 268 271 271 266 280 277 276 278 279 280 281 282 283 282 283 285 286 286
288 288 288 289 290 292 293 292 290 288 285 279 273 277 275 273 280 279 280 279 279 279 273 272 272 272 268 269 269 270 273 270 271 271 268 273 268 276 272 270 274 273 275 276 270 272 273 265 272 272 275 277 278 278 276 279 281 275 274 277 271 266 266 271 270 263 264 263 265 269 270 271 272 271 275 274 275 277 278 279 279 280 281 281 282 283 285 286
288 285 282 287 291 292 291 292 288 285 281 273 273 274 275 274 281 279 280 279 280 277 272 274 270 273 271 270 270 270 271 268 271 270 266 270 268 272 271 273 272 275 274 274 271 272 271 264 267 272 274 273 272 273 264 270 275 278 279 275 275 272 268 268 269 270 270 263 266 264 269 264 275 272 275 274 276 277 277 277 278 278 279 280 280 282 283 284
284 281 281 288 291 292 292 291 286 283 279 273 275 273 275 273 279 281 280 279 275 274 273 271 274 269 272 270 270 268 270 268 269 268 268 268 269 272 266 273 270 272 273 273 271 274 266 272 261 270 269 272 265 271 267 270 267 270 271 271 273 270 274 273 272 268 267 265 266 264 263 266 273 276 276 276 276 276 276 276 277 277 278 279 280 280 280 281
286 280 281 289 290 292 291 286 281 278 276 277 273 271 273 272 277 278 280 281 276 277 274 272 272 269 270 269 269 272 268 269 269 268 269 269 269 266 268 267 271 268 273 271 271 271 264 267 263 267 266 267 268 273 272 272 273 270 270 267 270 267 264 264 261 274 267 266 261 265 261 268 273 278 277 276 277 276 276 276 276 276 277 278 278 278 278 277
280 275 278 289 290 290 285 277 278 279 275 274 273 272 272 280 275 275 276 279 275 273 278 272 273 270 270 269 270 270 268 267 269 269 271 268 271 268 271 272 271 271 269 267 267 271 267 265 261 261 265 266 270 272 273 273 272 270 270 267 271 268 269 263 258 263 267 267 270 265 264 265 276 276 276 276 276 276 276 276 275 275 276 276 276 276 276 275
279 277 287 290 290 287 281 275 279 275 274 273 276 274 278 276 274 275 272 273 270 274 272 272 271 268 269 267 269 268 271 265 268 267 269 270 269 271 272 272 273 270 271 267 269 269 272 261 260 262 266 267 270 272 271 271 269 268 269 269 269 266 268 265 265 266 263 264 263 262 262 266 273 275 275 276 276 276 276 274 273 273 274 274 274 274 273 273
279 278 281 290 290 287 276 270 271 273 275 273 274 272 277 273 272 270 271 272 270 271 270 269 270 272 267 269 267 266 271 261 269 266 267 270 266 274 272 272 273 269 269 267 263 267 258 262 259 257 258 259 261 265 264 268 267 264 264 265 264 265 265 266 267 267 263 263 264 262 256 264 272 275 275 275 275 274 273 273 273 271 272 272 272 272 272 272
279 281 281 284 289 283 273 275 272 272 272 270 270 268 269 271 273 273 272 271 273 272 270 269 270 269 267 269 264 267 267 266 263 269 266 267 267 273 272 271 272 268 270 270 272 270 261 260 260 255 254 252 251 252 255 259 260 265 266 266 267 265 263 261 257 262 259 263 266 261 261 268 272 274 274 273 273 272 272 272 272 271 270 270 270 270 270 270
277 268 278 279 280 280 279 278 275 271 270 268 267 269 269 267 271 274 275 271 273 273 272 272 273 272 269 267 264 262 264 268 263 261 263 265 268 269 268 269 269 268 271 273 272 270 262 264 261 260 258 256 258 260 264 266 263 259 262 265 264 266 266 264 262 260 256 262 262 263 265 265 267 269 270 270 271 270 269 269 268 268 268 269 269 269 269 268
279 273 273 270 276 276 274 277 274 275 270 271 266 264 261 266 268 269 275 265 272 270 269 269 268 264 264 265 262 262 264 263 267 265 264 265 267 267 265 265 265 270 273 271 271 265 261 259 260 260 260 261 262 261 263 265 261 262 261 261 264 264 264 263 260 257 264 260 254 262 264 262 264 268 268 268 269 269 268 267 267 267 267 267 267 267 268 266
273 276 275 276 270 269 271 271 271 271 273 272 269 270 268 267 268 265 270 270 269 268 261 264 263 264 262 261 261 259 262 260 260 259 262 262 260 262 263 264 261 270 270 266 269 264 262 259 259 259 256 260 261 261 261 261 261 262 262 262 261 263 262 260 260 263 263 259 256 262 263 261 264 267 268 266 267 266 266 266 266 266 266 266 265 265 264 264
279 278 277 278 271 273 273 273 272 270 269 270 270 270 268 268 266 269 269 268 269 268 269 261 266 267 266 266 264 263 265 261 261 266 264 263 262 262 259 263 265 267 267 265 265 265 260 257 257 259 256 259 260 261 261 260 261 260 259 261 262 262 262 262 261 263 262 261 263 263 263 262 265 267 266 264 266 266 265 266 265 264 263 264 263 263 263 263
275 274 273 277 276 274 273 273 273 272 269 272 268 270 269 268 267 270 272 269 266 268 271 266 266 268 267 267 266 264 264 265 265 262 266 262 262 264 261 264 262 267 268 264 264 263 262 257 265 259 257 257 259 262 262 262 261 258 261 262 262 262 262 262 262 262 263 262 263 263 262 262 267 268 265 266 265 265 264 263 263 262 262 262 262 262 262 261
280 281 279 273 270 273 274 274 272 271 269 270 268 270 270 270 269 271 269 271 267 265 267 264 267 266 266 265 265 266 268 267 267 267 268 267 262 266 262 262 265 260 263 262 263 261 263 257 261 258 256 255 258 259 260 261 261 260 259 261 261 261 259 261 261 263 262 260 262 262 260 261 263 264 266 264 263 262 261 261 261 261 261 261 260 260 260 260
282 282 279 276 270 274 271 273 272 270 267 271 271 270 269 268 270 270 265 270 270 270 268 267 266 265 264 264 265 267 269 269 268 268 268 267 266 265 266 265 265 262 261 263 263 259 259 258 257 258 255 255 258 258 258 259 258 255 255 259 261 261 262 263 263 264 264 264 261 258 259 259 260 262 259 260 260 261 261 261 260 260 260 260 260 260 260 260
Wind_Speed
20 20 20 21 21 21 21 22 21 22 21 21 22 22 21 21 20 20 21 20 20 19 18 17 14 14 13 12 11 11 12 7 8 6 5 4 4 4 4 6 7 8 10 7 8 5 5 5 6 5 5 3 3 5 5 5 3 3 4 3 5 5 6 5 8 6 1 2 4 4 6 4 3 5 5 5 4 2 2 5 6 5 8 11 10 6 1 0
21 20 20 20 20 21 21 21 22 22 22 22 22 22 22 22 21 21 21 21 20 20 18 15 12 12 11 11 10 11 9 7 8 4 6 4 6 5 5 6 7 8 8 7 4 5 4 5 5 7 4 4 1 2 8 2 5 5 3 4 6 5 4 10 5 4 5 4 4 1 4 4 1 8 3 4 5 6 4 4 3 7 6 8 11 9 0 2
21 21 22 21 21 21 21 21 21 22 22 23 23 22 22 22 22 22 22 21 20 19 17 14 11 10 10 10 10 10 7 6 5 5 6 6 4 3 5 6 8 9 7 6 4 4 5 6 5 6 4 5 2 4 5 2 4 7 5 5 7 0 7 7 8 4 5 6 4 3 4 2 1 2 5 4 2 6 6 2 1 4 5 3 5 6 3 1
22 22 22 22 21 21 21 21 21 21 22 23 24 23 22 22 22 23 22 22 21 19 15 12 10 8 9 10 9 7 5 5 2 6 6 6 7 4 5 7 8 9 8 6 2 4 4 5 1 7 3 5 4 3 4 4 4 4 6 6 0 2 3 4 8 7 4 4 3 2 2 2 3 2 1 1 4 6 6 2 4 5 2 1 3 6 6 7
21 21 22 22 22 22 22 21 22 22 22 22 23 23 22 22 22 23 23 22 21 18 14 11 9 8 8 11 11 4 3 3 3 6 5 5 7 7 7 7 8 7 8 3 2 3 2 4 1 2 3 4 5 3 6 6 5 3 7 8 1 3 1 8 7 6 4 3 3 2 0 2 3 3 4 4 4 3 1 5 3 2 3 3 2 3 5 5
22 23 23 23 23 22 22 23 23 24 24 24 23 24 22 22 22 22 22 22 21 17 13 11 9 7 8 10 5 3 2 2 1 2 6 6 7 7 8 8 8 7 7 5 3 1 1 1 2 2 2 4 6 6 5 8 5 3 4 6 2 1 3 5 7 3 2 2 2 1 1 1 1 2 4 4 7 2 5 5 6 6 5 4 2 1 3 5
23 23 23 23 23 24 24 24 24 24 24 24 25 24 22 21 21 22 22 22 19 14 12 9 8 7 9 11 4 3 4 1 2 1 5 5 7 7 6 7 8 7 6 5 3 3 2 2 3 4 3 4 3 7 6 4 2 3 4 2 5 6 4 4 2 6 2 2 1 1 4 2 2 5 2 8 5 4 3 5 6 5 5 6 4 5 5 4
23 23 23 24 24 24 24 24 24 24 24 25 26 24 23 21 21 21 22 21 17 13 11 8 6 8 8 4 2 3 4 2 4 3 4 3 6 4 5 6 3 4 6 4 2 3 2 3 5 3 4 4 2 7 5 2 4 5 6 4 2 3 1 1 1 2 2 3 1 3 3 5 4 5 2 7 6 4 5 5 3 5 4 4 4 6 6 6
24 24 23 24 25 26 25 25 26 25 26 26 25 24 23 22 22 21 21 19 13 12 8 7 7 8 7 2 3 4 1 3 4 3 3 4 4 4 3 4 2 4 4 2 1 4 2 3 4 2 1 3 1 2 5 3 4 8 8 2 1 2 1 1 2 3 3 2 2 3 7 4 5 5 8 12 11 10 8 5 4 3 4 6 7 7 7 8
24 24 25 26 26 26 26 26 26 27 27 28 27 25 22 23 24 23 19 14 11 9 7 7 8 10 6 3 2 4 2 8 2 2 3 3 4 4 4 4 4 5 4 2 3 3 3 4 3 4 2 2 2 1 3 3 1 2 2 3 2 3 3 2 4 3 3 3 3 5 5 4 3 6 6 5 13 10 7 9 9 8 10 9 6 6 7 7
24 25 26 26 26 27 28 28 28 29 29 27 27 25 23 23 24 22 15 9 8 5 4 7 9 10 3 3 3 2 1 3 2 1 4 3 4 4 4 5 3 5 4 1 3 3 6 2 3 1 1 1 2 2 0 1 3 1 3 4 5 5 5 4 5 5 2 3 5 5 5 4 4 3 11 6 2 2 2 5 6 7 8 8 8 8 7 7
25 26 26 27 27 28 28 29 29 30 29 28 28 26 25 24 23 18 10 7 6 3 5 6 8 4 4 3 5 2 5 2 2 2 2 2 2 2 3 3 4 4 3 1 3 3 3 4 3 2 1 4 3 2 3 3 0 2 0 3 5 6 8 9 8 4 5 2 3 2 3 6 6 7 14 8 5 1 1 4 3 3 4 4 4 4 4 6
25 25 26 27 28 29 28 29 30 30 29 30 30 27 26 25 22 14 9 7 7 4 5 5 5 3 4 4 2 1 2 1 2 2 2 1 1 0 0 1 2 3 4 5 3 2 3 2 2 3 1 1 1 1 1 2 1 1 2 3 5 5 7 10 5 4 5 1 3 4 2 3 9 14 7 2 4 5 4 5 4 5 7 7 7 7 7 5
24 25 26 27 28 29 29 29 30 32 32 32 30 28 27 25 19 11 7 8 5 6 6 7 3 4 3 1 0 2 5 3 2 1 3 2 3 0 2 0 0 1 4 3 3 2 2 2 3 2 1 1 1 0 1 2 1 2 4 3 3 2 2 6 6 7 4 1 3 1 3 2 5 6 3 1 1 4 4 4 6 6 5 5 5 4 4 5
24 25 25 27 28 29 30 29 29 31 32 31 30 28 27 23 16 7 5 4 7 6 6 5 3 3 4 2 2 1 3 5 1 3 2 6 1 3 2 2 3 3 3 4 1 1 2 3 2 1 1 2 1 1 1 2 3 3 1 4 3 5 2 3 6 9 6 1 3 3 2 7 3 5 3 1 1 3 3 4 3 3 3 3 2 2 3 4
24 24 25 26 28 29 29 29 29 30 31 31 31 30 25 20 9 5 6 5 2 3 4 3 4 5 5 3 2 1 1 2 4 2 2 5 5 2 3 1 2 2 1 2 2 1 2 3 1 2 1 3 2 1 2 2 3 3 5 3 3 6 4 4 4 5 1 5 2 4 3 3 0 2 2 2 3 4 3 3 1 3 4 4 4 3 2 3
23 25 26 26 27 28 28 30 30 32 30 30 34 29 24 14 4 6 6 7 4 2 3 1 3 4 1 1 3 3 3 4 1 1 4 1 5 2 2 2 2 3 2 2 1 1 1 1 1 0 1 2 2 2 2 3 3 5 5 4 4 3 6 3 1 2 4 5 2 3 2 3 2 5 4 4 5 5 5 4 4 4 4 4 4 4 3 3
24 25 26 26 27 28 27 29 31 31 29 31 30 24 16 5 1 3 7 4 2 2 4 4 2 1 2 2 2 3 2 5 3 3 5 2 6 1 2 1 1 2 2 2 0 0 1 1 1 2 3 2 3 5 4 2 1 1 3 4 3 1 1 2 4 4 3 4 2 3 6 6 6 6 5 6 6 6 6 6 5 4 4 4 4 4 4 3
24 25 25 27 27 28 28 28 30 29 28 30 26 19 4 7 0 3 2 1 2 2 2 1 1 2 1 2 2 1 3 0 3 3 1 1 1 2 0 2 1 2 2 1 2 1 2 2 2 2 4 6 8 6 7 1 0 2 3 2 3 2 2 2 4 6 2 2 3 4 6 5 6 5 5 5 6 7 7 5 5 5 4 4 5 5 5 5
24 24 27 28 28 29 28 28 28 25 27 20 16 5 1 6 2 2 4 7 4 2 2 3 2 3 2 3 2 2 0 1 0 2 2 1 1 2 1 1 2 1 1 2 3 2 1 2 4 6 6 9 9 8 2 4 3 0 0 0 2 2 3 1 1 4 3 0 4 7 6 5 5 4 4 4 5 5 5 5 4 4 5 5 6 6 7 7
23 26 28 29 28 27 27 28 25 21 22 12 12 7 6 4 4 3 10 8 1 3 3 3 0 2 3 3 3 4 1 2 1 2 2 1 3 2 2 2 2 1 4 2 4 1 2 2 7 6 3 6 4 4 5 4 4 2 1 3 3 2 3 2 1 5 2 2 2 4 5 8 8 7 6 5 6 8 6 6 6 6 6 7 7 7 8 8
25 27 27 26 26 27 27 29 22 19 15 8 11 9 4 4 2 2 2 6 2 4 1 1 2 1 2 1 2 0 3 2 1 2 1 0 1 1 3 2 4 3 5 2 2 2 3 6 1 2 3 5 3 3 3 2 0 1 1 3 4 4 4 6 1 4 2 3 4 2 6 10 9 8 10 8 8 10 8 9 10 8 7 6 6 7 7 5
24 25 24 25 26 27 28 27 23 15 7 9 11 8 5 5 3 3 3 5 9 6 2 2 3 1 3 2 1 2 3 2 2 4 2 1 0 3 2 2 4 1 3 4 5 5 3 5 3 3 5 5 3 2 4 1 1 2 3 2 5 3 0 2 0 0 3 1 2 3 9 13 11 8 11 12 12 13 11 9 9 7 7 6 5 5 4 5
23 23 24 25 27 27 31 27 23 6 8 9 11 9 5 4 3 3 4 4 5 2 1 2 2 2 3 1 1 1 3 1 0 6 2 1 3 1 1 4 4 3 4 6 7 3 4 1 4 3 2 1 0 4 3 3 3 5 5 4 5 4 5 4 1 0 2 3 4 6 6 11 8 9 7 9 11 9 7 5 6 6 5 5 4 5 5 7
23 23 24 25 27 29 31 30 4 8 7 4 9 7 6 3 5 2 3 5 3 3 2 1 3 2 2 1 0 1 1 2 4 2 2 2 2 1 2 1 0 4 4 5 3 3 7 2 4 3 3 3 3 3 5 4 3 3 6 7 8 8 2 3 3 6 4 3 3 5 3 5 0 5 8 4 1 5 6 7 6 6 6 5 6 8 8 8
22 24 24 24 26 28 29 9 6 10 6 6 6 8 6 4 2 5 3 2 2 2 1 2 2 1 1 2 3 2 2 1 2 2 2 1 2 2 2 1 2 0 1 2 3 2 2 2 0 2 2 3 3 3 3 2 5 1 2 3 4 6 5 2 1 2 2 0 1 4 1 11 3 7 12 2 3 6 2 4 5 5 6 6 7 8 9 10
24 24 23 23 25 27 10 4 8 8 3 4 8 7 6 3 2 4 2 2 1 3 3 1 1 0 1 2 1 0 0 1 1 1 1 2 1 2 1 2 1 0 1 1 1 2 1 3 3 0 1 2 3 3 4 9 3 3 1 3 4 4 2 2 2 2 4 2 4 1 3 5 15 13 4 4 9 9 5 6 5 4 5 7 7 8 8 9
25 24 22 24 25 21 3 5 7 5 5 7 8 6 5 5 4 3 1 2 1 0 2 1 2 1 1 2 1 2 2 2 2 1 2 1 1 2 3 3 2 2 1 0 3 0 2 1 1 3 3 3 4 4 3 1 3 1 1 4 4 4 3 3 2 2 1 4 5 4 4 4 7 7 5 6 6 2 4 6 5 7 8 7 7 7 7 8
23 23 24 24 24 15 3 4 3 6 6 6 6 6 3 5 4 1 1 2 2 1 3 4 1 1 2 2 2 0 1 1 1 1 2 0 2 2 1 2 2 2 0 1 5 1 1 1 1 1 1 4 2 3 3 2 4 2 4 4 4 4 2 1 2 1 2 2 10 11 8 7 12 12 2 1 3 3 5 8 9 9 9 8 8 7 6 6
23 23 24 25 15 5 5 4 2 6 6 6 6 5 6 5 2 0 0 4 3 0 2 2 1 3 2 3 2 0 1 1 1 1 1 1 3 1 2 1 2 1 3 3 7 8 6 2 2 2 3 4 3 3 2 2 2 4 3 2 0 2 3 3 4 3 1 6 14 18 9 6 9 8 3 4 4 6 7 4 5 6 7 6 6 6 6 5
23 24 23 21 6 5 7 2 7 7 6 5 6 7 3 1 1 1 1 1 3 0 1 2 2 4 3 3 0 0 2 1 0 1 1 1 1 1 2 2 2 1 3 4 6 9 7 2 2 3 5 5 2 1 0 1 2 3 1 2 3 5 4 2 2 4 4 10 14 13 6 10 12 8 5 5 8 9 8 9 8 11 5 2 2 1 0 0
22 24 23 11 5 5 5 5 9 6 6 7 7 4 2 1 2 2 1 2 0 0 1 0 2 1 2 1 2 0 0 2 1 1 1 2 1 3 3 2 0 5 6 3 5 2 2 7 5 1 5 8 4 3 5 2 2 2 1 2 2 3 1 2 4 5 10 12 3 2 6 3 12 15 18 11 10 4 4 4 5 2 3 3 4 3 1 0
23 24 23 5 5 3 4 5 5 6 7 8 5 2 1 0 1 3 2 0 2 1 1 1 1 2 1 5 1 0 2 1 2 1 2 1 2 4 3 3 3 5 10 2 5 8 4 3 6 5 3 5 4 6 2 2 5 5 6 5 4 3 4 5 7 3 4 5 10 9 6 8 3 9 18 18 17 13 15 12 10 8 6 8 7 5 5 1
24 23 9 3 2 2 4 5 5 6 8 6 2 1 0 0 3 4 1 3 0 1 2 1 3 2 2 1 1 2 2 1 2 1 1 1 1 3 1 3 5 0 1 4 3 2 5 6 3 4 1 2 5 6 4 2 2 8 5 6 8 5 4 6 5 7 7 8 6 11 3 5 6 5 8 5 9 9 12 13 10 9 4 2 4 5 3 2
25 16 4 4 3 4 5 5 6 7 6 5 2 1 0 3 2 1 1 3 1 2 2 2 1 1 3 1 1 2 2 2 1 3 1 0 2 1 1 0 5 2 1 1 4 1 7 8 0 4 2 2 3 3 4 3 7 5 2 3 6 12 4 9 3 3 1 2 3 1 6 6 4 4 7 3 4 1 2 3 2 4 4 3 4 2 4 4
15 4 5 1 3 4 5 4 6 8 5 4 1 1 4 0 1 3 1 1 2 2 6 8 6 2 4 3 1 2 4 4 0 2 1 1 2 1 3 3 2 4 1 4 2 2 0 3 4 4 7 4 4 7 3 4 3 1 2 7 6 3 5 5 7 6 7 7 10 3 7 6 4 7 6 7 11 7 5 4 3 5 7 3 10 13 14 13
7 7 3 3 4 5 6 6 7 6 4 2 1 3 0 2 2 2 4 5 1 2 4 3 2 2 1 1 1 1 1 2 3 2 1 2 3 4 2 3 5 5 4 2 3 1 1 4 2 3 7 1 5 4 5 3 0 2 1 2 3 1 2 5 6 5 7 10 10 8 14 10 7 10 5 5 2 2 11 12 13 13 14 14 12 13 13 14
8 6 6 1 5 6 6 7 7 5 2 1 3 6 2 1 3 4 2 4 1 2 2 1 3 8 3 1 2 2 2 2 2 3 2 1 1 4 3 2 5 4 6 7 2 1 5 6 5 4 5 5 7 6 6 6 3 4 5 3 5 3 2 4 2 10 8 10 6 8 9 10 8 10 5 7 6 10 10 12 14 15 16 15 15 16 16 15
7 5 1 3 6 7 7 6 4 4 1 1 2 6 2 1 3 4 6 3 3 2 1 5 1 1 3 2 1 1 1 2 2 2 3 3 4 4 4 3 2 6 5 5 1 2 3 2 3 1 2 3 4 1 2 2 3 4 3 5 3 1 4 5 4 3 4 10 9 11 10 6 4 2 4 9 9 10 11 12 13 14 16 14 13 14 14 14
6 3 1 3 6 6 7 5 3 2 1 2 2 1 0 1 2 3 2 6 3 4 3 3 5 2 2 2 3 1 1 2 2 3 1 3 2 4 3 8 3 7 7 5 1 2 1 1 5 1 1 6 4 1 1 2 1 3 4 4 3 2 2 1 5 2 3 3 7 6 8 2 4 1 8 11 14 12 11 11 11 13 14 14 15 16 16 18
5 2 1 3 6 7 7 3 1 2 2 1 3 1 2 2 5 4 7 5 2 3 3 3 3 2 2 4 3 3 2 1 0 1 2 4 2 3 4 2 5 4 3 3 4 5 1 5 7 7 3 6 8 2 3 6 3 2 3 2 3 5 4 4 8 6 5 6 4 7 9 2 2 1 11 12 12 12 11 11 11 13 13 14 14 15 16 15
4 2 2 4 6 8 5 2 1 1 1 2 1 1 2 4 2 5 4 3 4 2 2 3 3 1 1 2 3 3 2 3 3 3 3 4 5 3 2 1 4 2 2 2 3 3 4 2 2 7 6 6 7 9 7 5 4 1 4 3 3 2 3 1 3 5 1 5 5 6 5 6 4 8 12 12 12 12 11 11 11 12 13 13 13 15 15 15
3 4 5 6 6 7 4 2 2 2 0 1 2 1 2 3 1 3 5 4 2 1 1 1 1 3 3 2 3 3 2 2 1 4 3 2 2 3 1 4 4 7 1 1 4 2 10 0 2 5 5 5 5 5 8 9 5 7 4 4 5 3 4 2 4 4 4 5 5 4 9 6 1 4 13 10 10 10 11 12 10 9 11 13 14 14 15 15
5 5 4 2 3 4 2 2 1 2 2 2 3 3 5 2 3 4 1 3 1 2 1 1 4 2 2 2 2 1 4 4 1 3 5 4 2 7 3 7 5 3 4 4 5 5 6 4 9 6 5 4 4 4 4 5 2 3 2 4 2 3 8 6 4 3 5 7 8 5 9 3 2 7 6 12 12 12 13 12 11 10 11 12 13 13 12 15
5 3 2 2 1 3 2 2 2 2 4 4 2 4 3 2 2 3 3 3 2 1 1 2 3 0 1 1 1 1 1 2 4 3 3 3 1 5 3 8 4 3 5 4 5 3 7 6 1 2 6 10 6 3 0 4 7 2 1 5 4 8 10 5 2 3 9 5 11 10 10 8 11 14 13 12 12 11 11 10 10 10 10 11 12 13 13 14
3 2 0 1 2 1 1 1 1 1 3 5 4 2 3 1 3 4 4 4 4 5 2 3 5 2 1 3 2 1 1 3 2 3 1 2 1 2 1 2 4 1 1 5 5 1 1 2 2 4 6 11 8 6 7 9 4 4 11 11 9 9 4 3 3 6 6 7 10 8 8 8 9 10 11 11 11 10 9 11 11 11 11 11 10 11 12 12
1 2 2 3 2 2 1 2 2 3 2 4 2 2 3 1 3 4 2 0 2 3 3 2 3 2 3 7 3 0 4 3 5 6 8 5 3 2 1 6 3 4 11 4 3 2 1 3 6 8 10 11 8 11 8 8 11 11 10 12 14 12 9 9 9 10 8 9 16 9 12 13 12 12 14 10 9 7 8 9 10 10 11 11 12 12 15 14
2 2 0 2 0 3 3 2 2 4 3 4 5 3 5 5 5 3 2 5 5 1 2 3 3 2 5 6 2 1 2 1 4 5 7 1 1 3 1 4 4 6 3 0 3 2 3 3 5 3 6 7 6 6 5 6 6 7 8 10 15 17 16 13 12 9 9 11 13 12 14 14 15 16 13 7 8 7 8 9 9 9 10 12 14 14 14 15
1 2 1 2 2 3 1 4 3 5 7 5 5 4 7 7 7 5 3 3 1 1 3 2 1 3 3 3 2 4 7 4 5 5 6 2 1 1 1 1 3 5 1 1 2 2 1 3 6 8 10 9 11 10 9 10 8 8 9 11 13 15 18 18 15 12 11 13 12 13 15 19 12 16 5 5 7 9 8 7 8 12 13 12 13 13 14 15
2 3 2 1 2 6 8 6 5 7 6 7 4 3 2 6 9 7 5 3 3 2 3 3 8 9 6 6 5 6 7 9 7 2 3 7 3 2 1 3 3 1 5 2 1 3 3 6 10 5 5 8 8 8 8 9 8 10 11 12 13 13 14 15 16 16 16 14 12 14 16 17 10 5 9 9 9 8 10 13 12 11 12 12 12 12 13 14
1 1 0 4 6 4 3 3 4 3 5 4 5 6 6 6 3 4 4 5 5 5 2 3 3 3 4 4 5 8 7 4 5 4 3 3 3 3 4 3 8 2 1 1 1 2 4 3 2 1 7 9 7 7 8 9 10 10 9 10 11 11 11 10 11 10 13 15 17 16 12 8 5 9 6 9 10 11 11 11 10 10 11 12 12 12 13 14
1 1 1 2 4 4 5 4 5 5 5 3 2 5 1 4 5 5 6 4 0 3 3 2 3 1 4 3 6 4 2 4 5 4 3 2 2 1 0 1 1 1 2 3 2 1 1 0 2 3 7 9 6 2 3 5 6 8 10 11 15 16 15 15 14 14 16 14 13 12 6 7 7 8 8 9 10 9 9 10 9 10 10 11 12 12 12 13
Wind_Direction
1 358 357 356 355 353 351 351 349 348 348 347 344 343 341 340 338 336 335 333 334 334 332 328 324 319 318 322 327 327 329 309 294 254 223 60 338 346 353 349 346 333 328 304 280 248 226 211 201 169 212 190 191 190 161 211 170 206 195 210 223 238 208 186 179 168 121 103 108 166 166 188 211 158 164 136 155 198 286 265 279 265 266 294 304 312 70 97
358 357 356 356 354 353 352 351 348 347 346 345 343 341 340 339 336 335 334 332 332 333 331 329 326 318 319 321 328 329 321 302 281 253 53 33 17 352 352 351 339 326 323 296 247 217 235 175 200 187 182 206 143 191 142 184 183 193 209 209 242 204 239 156 156 110 169 135 128 157 187 189 208 163 145 188 200 190 231 249 253 282 265 271 285 294 276 356
358 356 356 355 355 353 351 348 348 347 347 344 342 342 339 337 335 333 332 331 331 332 332 331 329 319 319 323 327 325 320 292 256 222 95 37 0 344 346 340 334 321 304 322 349 302 306 330 183 209 193 212 177 146 197 152 189 227 255 226 222 166 72 85 100 104 82 137 98 37 19 318 56 66 135 231 239 180 207 226 227 266 285 307 322 325 0 347
356 355 354 355 353 351 350 348 347 348 345 343 341 340 338 336 333 332 330 328 330 331 332 331 329 321 318 317 326 314 296 284 233 103 61 37 20 359 342 334 325 313 296 276 348 297 315 281 293 212 201 249 172 208 174 182 166 181 231 233 211 47 116 114 106 112 102 98 109 75 9 313 44 355 205 223 224 221 214 167 192 188 197 67 340 313 331 337
356 355 353 352 351 350 348 347 347 345 344 342 340 339 336 333 331 330 327 327 325 330 327 330 324 323 317 320 316 294 288 274 90 76 9 34 5 347 327 333 317 309 305 325 256 224 241 265 228 277 267 212 169 188 227 188 201 10 235 238 109 199 291 119 109 100 117 96 109 108 214 226 352 291 233 239 235 219 131 184 139 151 158 140 196 291 326 316
356 354 351 350 350 349 349 346 345 344 343 341 340 338 335 331 330 328 325 322 324 322 325 324 323 319 321 323 321 248 262 299 59 68 322 18 342 328 317 310 306 298 295 280 298 68 225 224 215 210 215 246 170 204 206 214 153 241 250 251 100 33 102 138 111 105 130 148 149 179 127 78 248 268 278 255 233 229 139 155 165 164 159 155 147 190 266 281
354 353 352 351 350 349 346 345 343 342 341 339 338 337 333 330 328 326 324 320 319 320 316 324 326 328 323 312 264 255 249 63 92 75 9 342 321 308 300 296 283 270 277 278 201 203 195 208 200 201 221 252 210 215 192 135 113 263 258 246 199 110 226 71 104 109 235 112 220 162 129 209 183 267 219 249 260 273 228 174 169 170 152 153 164 193 206 247
353 353 352 350 350 346 344 343 341 339 338 338 336 334 331 328 327 325 321 318 315 310 316 316 325 331 333 312 224 218 223 108 73 106 34 328 308 317 296 282 275 289 276 281 274 220 196 218 191 228 255 226 56 220 109 139 165 228 247 270 96 83 265 303 160 219 214 247 234 249 231 220 199 229 352 255 261 263 258 263 213 158 160 171 193 199 204 215
352 352 351 349 347 346 344 342 340 339 337 336 336 334 331 327 326 323 323 313 311 306 309 315 320 320 324 290 265 288 195 66 15 34 30 4 330 284 293 289 192 286 317 262 232 326 268 189 228 256 279 258 164 272 115 169 221 209 236 79 310 260 245 238 238 249 237 250 223 242 243 239 219 227 245 245 241 239 254 274 274 251 191 193 208 213 210 212
351 352 350 348 346 345 344 343 340 338 337 336 335 333 330 327 326 324 321 312 300 305 302 309 325 332 298 245 255 251 90 269 300 52 22 331 308 288 237 350 334 300 263 84 277 225 238 359 7 7 354 273 305 258 123 206 27 334 263 306 297 262 259 231 235 226 226 226 218 236 252 250 236 150 269 209 235 234 235 242 252 248 254 250 232 225 224 226
351 350 348 348 347 344 343 342 340 338 336 335 333 332 328 327 325 324 321 299 293 301 312 318 335 335 324 252 239 228 257 278 344 66 35 306 3 360 27 339 351 304 307 69 327 25 353 330 353 351 51 309 170 142 289 136 10 298 334 311 268 255 242 237 223 227 168 257 226 232 259 263 263 241 247 228 125 82 192 231 220 231 248 247 241 224 226 227
349 348 348 347 346 345 343 342 339 338 336 335 332 329 327 326 327 325 316 289 264 288 329 324 333 328 269 278 235 36 256 52 335 21 52 19 30 2 3 324 324 320 299 269 99 15 360 1 315 271 241 338 184 81 208 81 275 312 324 272 256 239 228 211 215 207 166 247 141 178 262 247 214 228 240 242 243 209 265 274 259 263 254 267 284 271 226 219
349 348 348 346 346 345 343 340 339 338 336 334 331 327 324 327 327 323 300 272 240 244 263 302 307 282 315 221 72 286 334 115 54 37 92 321 150 90 299 354 303 339 357 306 82 49 331 324 344 286 355 306 188 218 57 340 210 286 243 223 310 285 261 216 168 167 164 215 127 151 332 242 195 217 242 250 176 204 230 246 265 264 262 261 250 248 259 256
350 348 347 346 346 344 342 341 340 338 336 331 327 323 323 325 326 320 285 261 240 225 263 279 290 269 254 81 301 84 318 18 216 199 360 325 268 179 167 84 103 9 358 60 60 10 331 317 293 330 345 335 46 172 201 129 231 174 230 166 229 265 295 101 123 135 150 107 142 202 188 286 195 201 192 59 96 154 193 215 226 228 235 232 224 233 238 248
348 348 348 348 345 344 343 342 340 338 334 330 323 321 322 323 326 312 290 253 229 246 274 278 243 223 209 70 183 306 352 300 282 36 30 320 192 151 118 135 83 63 37 18 39 343 300 326 315 233 138 68 268 337 250 209 186 225 347 224 234 217 168 164 128 158 164 257 236 154 286 252 150 150 166 142 201 173 222 222 218 245 258 261 266 253 238 235
348 349 349 346 345 344 343 341 340 339 335 328 323 320 319 320 325 296 261 264 284 322 280 247 202 232 292 148 60 343 255 214 81 37 350 306 326 33 45 97 95 114 178 41 337 292 355 325 305 2 5 46 3 227 277 215 202 228 195 268 184 202 159 133 209 181 82 140 182 201 236 15 72 206 143 234 176 187 215 235 257 282 293 300 290 264 276 318
349 349 347 347 346 345 343 341 340 340 333 328 321 318 317 321 290 272 256 241 258 226 220 278 152 199 291 44 308 188 107 81 358 21 339 354 312 88 203 168 132 83 76 162 61 273 32 326 90 231 303 267 175 195 236 244 240 200 213 237 243 214 156 168 171 178 144 157 180 233 242 234 297 170 208 212 185 187 206 234 259 270 266 261 275 279 261 248
348 347 347 347 346 344 343 342 341 338 333 328 321 314 315 332 270 306 243 234 241 211 241 258 268 237 130 278 188 93 340 70 12 312 305 342 338 346 329 130 151 137 135 113 237 31 209 259 140 256 159 212 235 213 172 217 162 33 152 222 281 350 272 173 151 170 187 189 224 214 222 243 240 258 233 202 212 206 214 218 222 232 257 272 274 288 289 267
348 348 347 347 345 344 344 343 342 338 334 328 318 313 83 84 25 244 7 173 207 192 206 104 322 209 347 110 97 106 58 158 300 277 155 115 347 331 334 352 203 158 167 211 100 215 84 260 120 295 238 187 207 212 206 54 48 40 23 350 2 326 310 31 97 155 204 219 225 233 251 250 251 247 243 246 216 218 231 239 220 213 217 238 253 261 263 264
349 348 346 343 342 342 343 344 341 340 341 337 340 325 53 23 290 168 29 9 50 30 15 342 197 299 220 206 93 56 206 183 227 156 75 290 273 208 206 221 110 323 254 206 130 235 199 163 204 215 229 199 199 205 275 81 35 10 57 160 226 284 288 16 152 124 126 261 234 240 257 266 270 262 269 263 274 273 273 271 262 227 209 218 231 236 244 249
347 346 343 342 342 341 341 343 341 341 350 346 337 34 45 348 354 344 335 306 332 76 13 332 340 271 340 12 10 350 163 165 293 133 76 20 282 284 184 168 185 207 218 243 124 67 36 225 245 234 65 69 58 33 37 25 59 67 305 341 304 238 257 247 256 100 60 114 285 3 308 274 265 271 265 270 273 260 246 249 244 237 224 216 221 230 233 243
345 344 344 343 341 341 339 340 341 338 1 3 30 61 85 56 354 317 292 310 281 323 6 119 37 220 115 285 70 266 299 132 221 136 90 258 226 246 139 217 184 220 164 146 129 80 202 223 215 85 100 85 75 63 76 62 32 84 157 264 300 285 244 249 219 68 121 104 264 244 295 282 270 264 265 256 243 250 237 230 233 233 235 233 225 228 236 242
348 347 345 343 341 338 339 336 335 339 5 30 43 55 58 336 354 325 291 275 276 243 231 159 233 190 133 138 106 346 171 223 199 157 183 243 163 260 145 192 212 162 119 189 184 173 218 225 111 86 67 84 95 118 105 171 184 234 215 221 230 242 213 305 1 9 55 70 279 322 287 281 278 259 254 246 244 246 240 238 245 228 234 233 233 228 225 230
348 347 345 343 341 341 333 331 321 0 3 54 54 46 353 3 319 327 274 246 313 118 195 85 28 22 34 67 102 194 260 67 102 158 54 223 215 182 228 259 267 208 201 199 228 263 261 124 146 109 113 182 221 138 168 162 232 204 208 226 240 255 253 202 241 131 212 249 230 284 285 279 259 269 259 247 242 253 263 258 247 244 231 228 244 265 240 238
347 348 346 343 343 339 332 317 354 352 328 48 49 27 355 349 350 303 289 272 195 240 31 183 244 93 114 206 260 294 107 97 39 51 150 267 238 108 249 357 39 226 222 176 219 250 268 274 119 143 191 180 177 183 189 204 244 237 221 210 218 217 203 66 21 33 2 321 242 161 329 264 146 224 249 287 239 229 238 237 231 224 231 215 223 232 245 245
347 347 346 344 340 339 322 303 17 330 315 70 15 2 352 348 329 321 284 301 269 71 305 168 178 93 185 121 164 280 335 153 22 25 352 45 338 284 1 243 190 134 61 149 216 215 233 101 171 172 197 220 201 211 232 208 228 250 246 32 53 92 87 70 44 54 306 128 43 69 72 287 282 271 266 267 289 253 267 240 226 205 213 214 215 214 224 234
343 343 344 343 340 338 344 41 322 316 24 27 10 353 338 335 259 256 278 204 282 162 120 116 128 194 204 77 276 300 228 121 149 152 198 7 310 231 278 192 130 138 57 251 23 267 127 171 88 97 187 211 227 244 218 197 198 243 1 59 62 88 108 164 178 169 237 338 316 72 161 257 296 272 229 219 241 255 252 249 251 221 210 215 218 211 211 223
341 342 343 340 339 332 327 302 333 19 26 326 335 331 357 323 331 287 240 337 256 158 134 145 28 28 302 125 136 272 69 155 181 112 343 18 296 253 169 307 332 43 319 53 256 97 151 108 197 203 189 215 233 234 303 277 188 165 57 71 66 93 65 55 72 256 258 324 271 234 193 257 242 282 115 177 252 293 257 245 249 249 246 241 231 221 215 210
342 340 340 338 334 325 294 331 324 354 343 330 332 333 344 313 290 309 319 279 137 88 291 83 258 170 168 186 239 224 157 181 303 100 250 344 226 337 251 296 352 334 279 246 241 262 331 141 69 7 294 254 276 294 304 282 257 103 106 75 89 73 86 164 202 228 275 244 257 247 196 241 269 270 348 258 221 217 238 236 230 236 243 241 246 246 231 217
338 338 336 335 332 334 339 287 28 354 327 336 318 328 300 275 272 210 188 256 66 90 20 149 160 341 318 240 143 57 169 46 56 132 217 244 151 164 260 98 256 245 249 232 243 238 240 113 153 132 212 235 285 305 60 339 63 130 89 92 116 178 195 201 186 170 240 232 245 242 219 198 277 267 209 217 199 193 232 261 244 229 227 235 232 225 216 212
335 336 335 334 342 338 292 289 18 342 334 321 324 291 283 286 227 344 209 224 71 42 279 61 356 12 28 22 105 125 105 122 300 139 196 13 181 254 258 282 72 315 235 231 239 248 243 203 71 243 215 258 75 298 192 14 325 52 45 51 0 318 228 211 215 174 187 249 244 244 210 199 235 275 254 244 274 272 274 272 282 286 247 223 228 229 208 158
336 332 335 334 324 286 1 337 330 329 320 319 297 306 314 335 184 209 250 112 317 46 45 1 62 43 43 27 184 319 241 302 200 192 223 175 223 166 198 174 35 334 274 252 267 51 240 209 211 197 186 187 217 205 255 175 175 224 187 129 178 282 36 309 153 221 209 233 234 154 185 241 230 248 259 244 250 259 240 242 251 273 354 351 330 315 295 240
334 331 326 352 322 16 352 328 308 315 314 294 289 299 309 292 273 230 257 37 279 41 94 74 8 38 326 347 216 200 172 185 121 228 111 227 167 247 257 250 138 168 273 22 333 323 250 150 176 213 133 216 187 203 199 165 202 189 184 174 152 208 226 238 239 230 257 253 247 249 195 235 185 249 243 247 250 248 262 268 280 292 290 285 283 297 280 292
331 326 324 2 296 340 342 325 317 320 320 322 304 284 134 147 240 96 219 38 299 246 48 38 334 124 59 219 284 357 308 152 43 44 45 321 348 297 293 241 150 258 198 303 246 249 308 303 263 146 273 153 190 214 244 260 179 207 182 184 199 187 164 224 183 223 221 246 241 207 170 241 191 245 212 233 223 228 243 255 253 251 254 262 251 260 290 275
326 314 335 282 235 48 340 327 318 319 303 300 309 255 239 231 249 312 14 4 340 349 25 89 326 307 269 213 33 323 174 306 90 23 335 179 262 231 261 321 14 340 164 15 242 157 215 245 131 46 59 3 161 288 275 294 300 264 220 167 213 221 232 245 283 244 248 329 328 164 179 225 185 250 111 165 95 49 42 356 24 327 315 316 327 330 305 293
318 331 297 267 347 5 319 331 325 317 308 313 278 225 228 330 258 38 36 246 296 12 313 303 224 244 243 202 72 45 307 167 5 88 304 235 272 319 54 6 40 17 267 190 325 27 218 250 38 342 33 45 21 28 343 19 201 306 138 220 244 269 237 288 285 273 292 284 243 236 276 262 315 287 317 344 309 312 301 279 315 2 340 359 23 17 15 14
322 313 328 349 9 344 321 333 329 317 305 282 252 247 178 47 39 354 39 2 339 303 310 3 296 143 308 336 145 118 292 81 264 117 275 89 321 181 73 70 64 35 48 41 332 7 236 265 30 9 333 41 9 331 301 302 218 23 113 288 0 298 89 206 251 231 225 234 248 221 246 255 246 275 195 259 317 356 38 40 43 39 40 31 20 19 13 8
319 313 287 60 353 325 324 324 320 304 280 260 223 251 88 113 37 58 3 5 351 306 292 224 282 110 282 150 359 89 32 95 358 91 244 317 290 62 76 63 22 75 13 340 152 341 86 304 276 254 238 302 35 357 317 301 236 199 250 347 50 262 271 238 214 234 231 231 253 226 249 249 237 263 318 331 7 30 38 34 39 37 33 26 15 12 11 10
310 306 281 34 318 327 320 320 296 284 246 215 246 261 59 325 48 66 2 16 250 273 282 249 233 330 89 347 79 234 232 185 43 316 38 256 179 64 52 13 67 57 11 2 61 12 27 210 301 18 8 336 16 340 290 284 311 264 198 267 178 274 257 267 209 311 260 263 251 245 211 243 198 346 65 67 50 32 41 34 36 36 32 22 17 11 6 9
334 333 70 355 325 332 322 295 293 251 213 240 270 60 116 341 31 25 37 31 347 33 293 31 355 319 347 353 24 303 341 139 323 290 44 328 96 67 57 15 12 357 9 353 50 6 286 248 270 112 358 335 345 195 261 20 316 328 306 265 241 214 345 6 311 223 234 277 247 265 251 176 70 317 55 57 60 50 41 36 31 33 30 24 23 18 10 12
303 259 115 346 351 331 305 279 249 193 222 104 106 114 338 35 354 327 17 357 21 236 236 327 331 288 359 347 326 20 336 34 224 219 228 343 335 300 82 24 350 5 350 286 92 357 58 293 262 293 300 243 248 329 107 48 339 35 311 329 339 345 341 253 263 199 214 241 223 247 245 148 299 46 57 61 60 52 43 41 29 25 24 27 24 20 18 11
323 319 25 9 10 333 338 312 203 62 31 305 10 58 357 10 345 341 11 4 26 315 358 71 306 267 312 289 297 332 328 297 254 245 274 202 10 93 68 340 17 340 49 14 80 13 122 328 31 260 260 270 297 308 327 328 319 292 336 291 351 349 299 310 260 273 317 271 266 258 269 226 128 70 69 57 58 52 48 45 38 20 16 19 23 21 16 17
350 284 347 33 352 340 337 255 120 74 299 49 290 270 19 341 32 8 15 326 3 87 353 261 336 57 312 95 360 36 51 310 120 237 239 325 41 96 71 62 27 7 56 323 67 236 81 6 270 290 287 300 301 314 310 322 336 314 274 231 278 310 314 242 269 289 303 299 320 287 241 209 98 142 82 75 60 53 52 45 40 30 14 9 15 20 15 12
313 296 303 109 354 338 313 343 339 322 103 101 24 330 345 319 329 317 358 330 332 347 42 348 340 63 270 77 7 123 332 49 286 94 331 86 343 121 157 71 53 3 70 304 85 280 61 280 104 293 307 284 263 248 266 243 282 281 303 358 31 31 20 324 313 302 270 237 248 270 255 229 331 335 21 63 54 51 48 42 44 36 19 12 9 11 16 11
289 242 206 306 65 340 359 31 351 342 341 30 66 301 302 311 341 1 319 292 324 198 87 293 160 233 257 76 209 90 311 183 284 184 123 328 205 97 341 90 68 71 105 220 127 244 118 252 335 280 291 284 273 248 270 35 326 290 47 298 320 13 328 3 337 280 253 221 240 240 261 265 291 295 308 49 46 46 46 39 43 46 32 17 9 6 10 14
9 342 65 199 117 317 134 108 16 11 339 23 346 348 18 272 319 41 2 326 268 275 227 245 276 283 256 300 319 334 241 284 194 264 55 261 192 97 223 145 117 147 320 298 300 288 189 277 219 234 245 262 277 285 314 322 308 309 289 294 297 296 292 328 274 286 259 303 270 265 293 311 304 318 329 15 39 31 32 35 31 17 19 22 15 11 10 12
294 241 346 326 322 128 244 74 20 33 47 36 315 83 339 295 278 314 236 116 15 71 339 272 268 85 291 92 253 173 253 244 282 277 269 272 285 113 160 141 347 267 281 303 305 80 280 232 244 243 243 255 270 280 291 293 281 294 313 301 292 284 280 269 260 255 286 305 274 280 296 296 290 313 320 6 27 39 35 40 35 26 18 13 8 5 6 8
291 103 2 63 149 322 345 82 48 3 324 301 272 291 272 277 282 273 333 227 228 137 90 314 120 256 189 203 236 280 290 279 231 228 255 191 135 294 90 275 115 268 272 214 253 156 210 247 267 286 272 274 270 274 277 276 269 266 271 282 289 292 285 269 259 255 253 254 263 288 290 290 293 298 314 30 8 44 45 36 42 32 23 16 10 8 7 3
296 305 314 37 319 348 20 328 318 283 273 261 269 246 255 252 256 247 241 287 134 283 130 251 253 232 241 217 196 251 271 270 265 213 210 286 242 317 10 335 285 211 305 184 251 209 120 261 238 224 251 258 263 265 270 269 268 260 252 258 260 267 276 282 279 272 255 257 272 276 277 275 281 286 347 19 29 25 31 35 40 33 22 17 15 9 4 1
354 356 341 359 273 273 260 271 270 265 265 265 277 243 213 242 256 265 279 111 288 251 132 164 237 256 269 296 286 268 253 253 266 301 302 112 301 250 235 262 235 125 166 228 181 291 168 240 253 276 280 263 258 256 255 259 259 259 252 250 252 251 258 261 272 279 287 274 262 260 261 269 280 33 56 27 32 25 23 25 20 21 21 18 16 10 5 358
314 16 14 304 292 282 276 207 237 272 290 270 258 264 265 282 306 358 270 142 209 247 251 241 327 342 327 283 279 271 275 288 301 284 291 266 229 293 112 298 104 266 331 219 209 263 238 264 279 309 274 267 257 256 261 266 270 272 272 264 262 264 258 258 257 253 258 272 283 285 278 273 42 9 28 39 30 31 25 17 12 10 11 14 13 10 4 357
257 132 103 238 248 292 303 289 267 271 263 278 274 283 96 281 303 319 337 227 328 44 108 349 264 124 270 247 256 282 17 63 67 66 48 44 92 328 195 241 276 219 245 246 304 340 267 5 277 257 256 261 267 284 314 296 297 272 251 251 263 264 266 273 272 272 270 281 278 269 286 39 353 12 11 5 13 13 23 22 12 9 9 8 6 5 1 356